GW7282 Weather Reports


Display with metric or nautical units.
time (UTC)temp
F
wind
direction
speed
MPH
gust
MPH
rain 1hr
in
rain 24hr
in
rain mn
in
humidity
%
barometer
mb
20260505223030 81 5 5.0 13.0 0.00 0.00 0.00 25 1007.6
20260505221530 81 320 6.0 12.0 0.00 0.00 0.00 23 1007.7
20260505220038 81 273 3.0 9.0 0.00 0.00 0.00 26 1007.8
20260505214538 79 306 2.0 7.0 0.00 0.00 0.00 24 1008.1
20260505213030 78 57 1.0 6.0 0.00 0.00 0.00 25 1008.3
20260505211530 78 338 5.0 12.0 0.00 0.00 0.00 27 1008.5
20260505210030 78 44 0.0 7.0 0.00 0.00 0.00 23 1008.7
20260505204530 79 273 1.0 9.0 0.00 0.00 0.00 21 1008.7
20260505203029 80 338 2.0 8.0 0.00 0.00 0.00 24 1008.8
20260505201531 80 307 1.0 9.0 0.00 0.00 0.00 26 1008.8
20260505200029 80 263 2.0 9.0 0.00 0.00 0.00 25 1009.0
20260505194534 79 96 3.0 10.0 0.00 0.00 0.00 26 1009.1
20260505193038 78 44 4.0 10.0 0.00 0.00 0.00 26 1009.2
20260505191544 79 34 4.0 11.0 0.00 0.00 0.00 27 1009.4
20260505190032 79 62 2.0 6.0 0.00 0.00 0.00 27 1009.4
20260505184528 78 72 4.0 13.0 0.00 0.00 0.00 25 1009.3
20260505183030 78 23 3.0 12.0 0.00 0.00 0.00 27 1009.5
20260505181529 77 113 4.0 13.0 0.00 0.00 0.00 26 1009.6
20260505180044 77 60 5.0 15.0 0.00 0.00 0.00 26 1009.7
20260505174538 77 77 6.0 12.0 0.00 0.00 0.00 27 1009.6
20260505173028 76 17 7.0 17.0 0.00 0.00 0.00 27 1009.7
20260505171533 76 5 2.0 8.0 0.00 0.00 0.00 29 1009.8
20260505170031 74 190 3.0 8.0 0.00 0.00 0.00 38 1009.7
20260505164527 73 0 1.0 4.0 0.00 0.00 0.00 39 1009.7
20260505163028 72 0 2.0 6.0 0.00 0.00 0.00 40 1009.7
20260505161529 72 222 0.0 4.0 0.00 0.00 0.00 42 1009.6
20260505153031 71 163 1.0 6.0 0.00 0.00 0.00 43 1009.4
20260505151537 71 166 0.0 4.0 0.00 0.00 0.00 42 1009.3
20260505124529 58 5 2.0 4.0 0.00 0.00 0.00 54 1007.4
20260505123051 57 10 1.0 4.0 0.00 0.00 0.00 56 1007.3
20260505121528 57 360 1.0 2.0 0.00 0.00 0.00 56 1006.9
20260505120031 57 5 1.0 2.0 0.00 0.00 0.00 56 1006.8
20260505114530 57 57 0.0 2.0 0.00 0.00 0.00 55 1006.8
20260505113036 58 15 0.0 2.0 0.00 0.00 0.00 54 1006.6
20260505111548 58 348 1.0 3.0 0.00 0.00 0.00 53 1006.5
20260505101534 63 78 0.0 3.0 0.00 0.00 0.00 45 1006.1
20260505100034 64 0 1.0 6.0 0.00 0.00 0.00 43 1005.9
20260505094531 64 360 3.0 8.0 0.00 0.00 0.00 44 1005.8
20260505093031 64 12 3.0 9.0 0.00 0.00 0.00 43 1005.8
20260505091533 64 351 4.0 8.0 0.00 0.00 0.00 43 1005.8
20260505090037 63 320 3.0 7.0 0.00 0.00 0.00 45 1005.7
20260505084532 64 46 1.0 6.0 0.00 0.00 0.00 43 1005.8
20260505083035 66 0 0.0 3.0 0.00 0.00 0.00 39 1005.8
20260505081533 67 0 1.0 3.0 0.00 0.00 0.00 38 1005.9
20260505080035 68 306 1.0 3.0 0.00 0.00 0.00 35 1005.8
20260505074529 69 327 3.0 10.0 0.00 0.00 0.00 34 1005.7
20260505073033 69 13 4.0 12.0 0.00 0.00 0.00 33 1005.5
20260505071536 70 348 5.0 15.0 0.00 0.00 0.00 31 1005.5
20260505070033 69 360 6.0 19.0 0.00 0.00 0.00 31 1005.3
20260505064543 69 41 6.0 17.0 0.00 0.00 0.00 31 1005.2
20260505063030 70 347 8.0 15.0 0.00 0.00 0.00 31 1005.1
20260505061536 70 19 8.0 16.0 0.00 0.00 0.00 30 1005.2
20260505060031 70 350 9.0 14.0 0.00 0.00 0.00 29 1005.1
20260505054531 69 352 4.0 12.0 0.00 0.00 0.00 29 1005.1
20260505053029 69 9 3.0 9.0 0.00 0.00 0.00 30 1005.0
20260505051528 71 350 5.0 13.0 0.00 0.00 0.00 28 1005.0
20260505041533 72 352 5.0 12.0 0.00 0.00 0.00 29 1004.6
20260505040031 72 348 5.0 10.0 0.00 0.00 0.00 29 1004.3
20260505034533 72 329 5.0 10.0 0.00 0.00 0.00 31 1004.2
20260505033031 73 350 6.0 11.0 0.00 0.00 0.00 32 1004.1
20260505031530 73 346 6.0 10.0 0.00 0.00 0.00 32 1003.8
20260505030028 74 5 5.0 10.0 0.00 0.00 0.00 32 1003.6
20260505024539 76 344 6.0 11.0 0.00 0.00 0.00 30 1003.5
20260505023027 78 352 4.0 12.0 0.00 0.00 0.00 29 1003.3
20260505021537 79 316 7.0 11.0 0.00 0.00 0.00 27 1003.3
20260505020028 81 331 3.0 11.0 0.00 0.00 0.00 26 1003.1
20260505014533 82 319 5.0 10.0 0.00 0.00 0.00 24 1003.2
20260505013031 82 5 3.0 8.0 0.00 0.00 0.00 25 1003.2
20260505011531 83 333 4.0 9.0 0.00 0.00 0.00 23 1003.4
20260505010031 83 352 4.0 9.0 0.00 0.00 0.00 22 1003.4
20260505004531 83 15 6.0 13.0 0.00 0.00 0.00 20 1003.6
20260505003028 83 299 6.0 12.0 0.00 0.00 0.00 20 1003.7
20260505001534 83 332 7.0 13.0 0.00 0.00 0.00 20 1003.6
20260505000039 83 334 6.0 14.0 0.00 0.00 0.00 20 1003.7
20260504234528 84 304 7.0 13.0 0.00 0.00 0.00 20 1003.7
20260504233029 84 267 5.0 15.0 0.00 0.00 0.00 20 1003.8
20260504231540 84 281 6.0 15.0 0.00 0.00 0.00 22 1003.9
20260504230027 84 319 7.0 15.0 0.00 0.00 0.00 21 1004.0
20260504224535 84 284 10.0 16.0 0.00 0.00 0.00 21 1004.3